Location: Spruce Knob
(38.6995°N, 79.5330°W)
Time: 21:25:07
(UTC-04:00)

A-11 Canister half - Pass Details

Date: 05 February 2022
Orbit: 1513 x 1686 km, 47.2° (Epoch: 24 May)

Event Time Altitude Azimuth Distance (km) Brightness Sun altitude
Rises 22:18:22 0° 291° (WNW) 4,673 12.1 -52.7°
Reaches altitude 10° 22:22:32 10° 275° (W) 3,675 11.3 -53.4°
Enters shadow 22:25:44 17° 256° (WSW) 3,156 10.8 -54.0°
Maximum altitude 22:28:26 19° 235° (SW) 3,002 - -54.4°
Drops below altitude 10° 22:34:22 10° 194° (SSW) 3,667 - -55.4°
Sets 22:38:33 0° 177° (S) 4,660 - -56.1°
